Hourly Data Report for May 21, 2021

FISHER BRANCH (AUT)
MANITOBA
Current Station Operator: ECCC - MSC

51°05'00.100" N
97°33'16.200" W
253.00 m
50309J6
71442
WSZ

Download Data

Hourly Data (May 2021)
Hourly Data Report for May 21, 2021
TIME
LST
Temp Definition
°C
Dew Point Definition
°C
Rel Hum Definition
%
Precip. Amount Definition
mm

Wind Dir Definition
10's deg

Wind Spd Definition
km/h
Visibility Definition
km
Stn Press Definition
kPa
Hmdx Definition


Wind Chill Definition


Weather Definition


00:00 4.7 2.5 86 0.0 1 10   98.92     LegendNANA
01:00 4.7 2.1 84 0.0 2 11   98.93     LegendNANA
02:00 4.3 2.5 88 0.0 1 12   98.94     LegendNANA
03:00 3.7 2.8 94 0.0 1 10   98.90     LegendNANA
04:00 3.7 2.9 95 0.0 1 8   98.94     LegendNANA
05:00 3.7 3.1 96 0.0 36 9   98.95     LegendNANA
06:00 4.0 3.3 95 0.0 1 10   98.99     LegendNANA
07:00 5.0 4.0 93 0.0 3 12   98.99     LegendNANA
08:00 5.6 3.5 86 0.0 2 12   98.97     LegendNANA
09:00 7.0 4.1 82 0.0 4 13   98.92     LegendNANA
10:00 7.8 4.5 80 0.0 4 13   98.91     LegendNANA
11:00 8.3 4.7 78 0.0 5 16   98.90     LegendNANA
12:00 9.5 5.2 74 0.0 7 16   98.86     LegendNANA
13:00 9.5 5.6 77 0.0 3 11   98.79     LegendNANA
14:00 8.2 6.9 92 5.6 32 11   98.88     LegendNANA
15:00 8.1 7.1 94 4.0 32 13   98.91     LegendNANA
16:00 7.5 6.3 92 0.0 32 20   98.99     LegendNANA
17:00 6.4 5.2 92 0.0 33 20   99.05     LegendNANA
18:00 5.8 4.0 88 0.0 33 23   99.09     LegendNANA
19:00 5.2 3.6 90 0.0 34 19   99.11     LegendNANA
20:00 4.2 3.1 92 0.0 33 17   99.22     LegendNANA
21:00 3.5 2.3 92 0.0 32 19   99.35     LegendNANA
22:00 3.0 2.1 94 0.0 33 14   99.38     LegendNANA
23:00 2.6 1.6 93 0.0 32 16   99.38     LegendNANA

Notes on Data Quality.

Legend

  • E = Estimated
  • M = Missing
  • NA = Not Available*
  • [empty] = Indicates an unobserved value
Date modified: